• In Hungary
  • List of Countries
  • For 7 days
  • Water Temperature
  • Satellite Maps
  • Weather Map
  • News
  • Weather Widgets
  • user-avatar
    Login

    Hourly Weather Kokuszka

    Today, 19 November, Sunday

    Time Temperature Precipitation Wind Pressure Humidity
    00:00 -1°C° 0 mm 2 mps 719 mmHg 88%
    01:00 0°C° 0 mm 4 mps 719 mmHg 82%
    02:00 0°C° 0 mm 3 mps 718 mmHg 83%
    03:00 0°C° 0 mm 3 mps 718 mmHg 85%
    04:00 -1°C° 0 mm 2 mps 718 mmHg 86%
    05:00 -1°C° 0 mm 2 mps 718 mmHg 87%
    06:00 -1°C° 0 mm 2 mps 718 mmHg 88%
    07:00 +1°C° 0 mm 1 mps 718 mmHg 90%
    08:00 +2°C° 0 mm 1 mps 718 mmHg 83%
    09:00 +2°C° 0 mm 2 mps 718 mmHg 76%
    10:00 +3°C° 0 mm 2 mps 718 mmHg 70%
    11:00 +4°C° 0.1 mm 2 mps 718 mmHg 67%
    12:00 +4°C° 0.1 mm 2 mps 718 mmHg 65%
    13:00 +3°C° 0.1 mm 3 mps 718 mmHg 63%
    14:00 +3°C° 0.1 mm 2 mps 718 mmHg 69%
    15:00 +3°C° 0.1 mm 2 mps 717 mmHg 75%
    16:00 +3°C° 0.1 mm 1 mps 717 mmHg 81%
    17:00 +1°C° 0.1 mm 2 mps 717 mmHg 83%
    18:00 -1°C° 0.1 mm 2 mps 717 mmHg 85%
    19:00 -1°C° 0.1 mm 2 mps 717 mmHg 87%
    20:00 -1°C° 0 mm 2 mps 717 mmHg 86%
    21:00 -1°C° 0 mm 2 mps 717 mmHg 85%
    22:00 -1°C° 0 mm 2 mps 717 mmHg 85%
    23:00 -1°C° 0.1 mm 2 mps 717 mmHg 85%

    Tomorrow, 20 November, Monday

    Time Temperature Precipitation Wind Pressure Humidity
    00:00 -1°C° 0.1 mm 2 mps 717 mmHg 84%
    01:00 +1°C° 0.1 mm 2 mps 717 mmHg 84%
    02:00 0°C° 0.5 mm 3 mps 717 mmHg 86%
    03:00 0°C° 0.5 mm 3 mps 717 mmHg 87%
    04:00 0°C° 0.5 mm 3 mps 717 mmHg 88%
    05:00 -1°C° 0.1 mm 3 mps 717 mmHg 88%
    06:00 -1°C° 0.1 mm 3 mps 718 mmHg 87%
    07:00 -2°C° 0.1 mm 3 mps 718 mmHg 87%
    08:00 -2°C° 0.1 mm 4 mps 719 mmHg 84%
    09:00 -1°C° 0.1 mm 4 mps 719 mmHg 80%
    10:00 0°C° 0.1 mm 5 mps 720 mmHg 77%
    11:00 0°C° 0.1 mm 5 mps 720 mmHg 75%
    12:00 0°C° 0.1 mm 5 mps 720 mmHg 73%
    13:00 0°C° 0.1 mm 5 mps 720 mmHg 71%
    14:00 -1°C° 0 mm 4 mps 721 mmHg 73%
    15:00 -1°C° 0 mm 3 mps 721 mmHg 76%
    16:00 -2°C° 0 mm 2 mps 721 mmHg 79%
    17:00 -2°C° 0.1 mm 2 mps 721 mmHg 80%
    18:00 -1°C° 0.1 mm 2 mps 721 mmHg 80%
    19:00 -1°C° 0.1 mm 2 mps 721 mmHg 81%
    20:00 -1°C° 0.2 mm 2 mps 721 mmHg 83%
    21:00 -1°C° 0.2 mm 2 mps 721 mmHg 86%
    22:00 -2°C° 0.2 mm 2 mps 721 mmHg 88%
    23:00 -2°C° 0.1 mm 2 mps 721 mmHg 88%

    Day after tomorrow, 21 November, Tuesday

    Time Temperature Precipitation Wind Pressure Humidity
    00:00 -1°C° 0.1 mm 2 mps 721 mmHg 88%
    01:00 +1°C° 0.1 mm 1 mps 721 mmHg 88%
    02:00 +1°C° 0.2 mm 1 mps 720 mmHg 88%
    03:00 +1°C° 0.2 mm 1 mps 720 mmHg 89%
    04:00 +1°C° 0.2 mm 1 mps 720 mmHg 90%
    05:00 +1°C° 0.3 mm 1 mps 719 mmHg 91%
    06:00 -1°C° 0.3 mm 2 mps 719 mmHg 91%
    07:00 -1°C° 0.3 mm 2 mps 719 mmHg 92%
    08:00 +1°C° 0.4 mm 2 mps 719 mmHg 92%
    09:00 +1°C° 0.4 mm 2 mps 718 mmHg 91%
    10:00 +1°C° 0.4 mm 2 mps 718 mmHg 90%
    11:00 +2°C° 0.4 mm 2 mps 718 mmHg 90%
    12:00 +2°C° 0.4 mm 2 mps 718 mmHg 90%
    13:00 +3°C° 0.4 mm 2 mps 717 mmHg 90%
    14:00 +3°C° 0.6 mm 2 mps 717 mmHg 92%
    15:00 +3°C° 0.6 mm 2 mps 717 mmHg 93%
    16:00 +3°C° 0.6 mm 2 mps 717 mmHg 95%
    17:00 +3°C° 0.7 mm 2 mps 717 mmHg 95%
    18:00 +3°C° 0.7 mm 2 mps 718 mmHg 96%
    19:00 +3°C° 0.7 mm 2 mps 718 mmHg 96%
    20:00 +3°C° 0.4 mm 2 mps 718 mmHg 96%
    21:00 +3°C° 0.4 mm 2 mps 718 mmHg 96%
    22:00 +4°C° 0.4 mm 2 mps 719 mmHg 96%
    23:00 +4°C° 0.3 mm 2 mps 719 mmHg 96%

    22 November, Wednesday

    Time Temperature Precipitation Wind Pressure Humidity
    00:00 +4°C° 0.3 mm 2 mps 719 mmHg 96%
    01:00 +4°C° 0.3 mm 2 mps 719 mmHg 96%
    02:00 +4°C° 0.1 mm 2 mps 719 mmHg 96%
    03:00 +5°C° 0.1 mm 1 mps 719 mmHg 96%
    04:00 +5°C° 0.1 mm 1 mps 720 mmHg 96%
    05:00 +5°C° 0 mm 1 mps 720 mmHg 96%
    06:00 +5°C° 0 mm 1 mps 720 mmHg 96%
    07:00 +5°C° 0 mm 1 mps 721 mmHg 95%
    08:00 +6°C° 0 mm 1 mps 721 mmHg 94%
    09:00 +7°C° 0 mm 1 mps 721 mmHg 93%
    10:00 +6°C° 0 mm 2 mps 721 mmHg 92%
    11:00 +7°C° 0 mm 2 mps 721 mmHg 90%
    12:00 +7°C° 0 mm 2 mps 721 mmHg 89%
    13:00 +8°C° 0 mm 2 mps 721 mmHg 88%
    14:00 +7°C° 0 mm 2 mps 721 mmHg 89%
    15:00 +6°C° 0 mm 2 mps 721 mmHg 91%
    16:00 +5°C° 0 mm 2 mps 721 mmHg 92%
    17:00 +4°C° 0 mm 2 mps 721 mmHg 91%
    18:00 +4°C° 0 mm 2 mps 722 mmHg 90%
    19:00 +4°C° 0 mm 2 mps 722 mmHg 89%
    20:00 +3°C° 0 mm 2 mps 722 mmHg 88%
    21:00 +3°C° 0 mm 2 mps 723 mmHg 87%
    22:00 +3°C° 0 mm 2 mps 723 mmHg 86%
    23:00 +3°C° 0 mm 2 mps 723 mmHg 86%

    23 November, Thursday

    Time Temperature Precipitation Wind Pressure Humidity
    00:00 +3°C° 0 mm 2 mps 723 mmHg 85%
    01:00 +3°C° 0 mm 2 mps 723 mmHg 85%
    02:00 +3°C° 0 mm 2 mps 723 mmHg 85%
    03:00 +3°C° 0 mm 2 mps 724 mmHg 84%
    04:00 +3°C° 0 mm 2 mps 724 mmHg 84%
    05:00 +3°C° 0 mm 2 mps 724 mmHg 84%
    06:00 +3°C° 0 mm 2 mps 724 mmHg 83%
    07:00 +3°C° 0 mm 2 mps 725 mmHg 83%
    08:00 +4°C° 0 mm 2 mps 725 mmHg 82%
    09:00 +5°C° 0 mm 2 mps 725 mmHg 80%
    10:00 +5°C° 0 mm 3 mps 726 mmHg 78%
    11:00 +7°C° 0 mm 3 mps 726 mmHg 79%
    12:00 +7°C° 0 mm 3 mps 726 mmHg 79%
    13:00 +8°C° 0 mm 3 mps 726 mmHg 79%
    14:00 +7°C° 0 mm 3 mps 726 mmHg 82%
    15:00 +5°C° 0 mm 3 mps 726 mmHg 84%
    16:00 +3°C° 0 mm 3 mps 726 mmHg 87%
    17:00 +3°C° 0 mm 3 mps 726 mmHg 87%
    18:00 +3°C° 0 mm 3 mps 726 mmHg 87%
    19:00 +3°C° 0 mm 3 mps 727 mmHg 87%
    20:00 +2°C° 0 mm 3 mps 727 mmHg 87%
    21:00 +2°C° 0 mm 3 mps 727 mmHg 88%
    22:00 +3°C° 0 mm 2 mps 727 mmHg 88%
    23:00 +3°C° 0 mm 2 mps 727 mmHg 88%

    24 November, Friday

    Time Temperature Precipitation Wind Pressure Humidity
    00:00 +3°C° 0 mm 2 mps 727 mmHg 88%
    01:00 +3°C° 0 mm 2 mps 727 mmHg 89%
    02:00 +3°C° 0 mm 2 mps 727 mmHg 89%
    03:00 +3°C° 0 mm 2 mps 727 mmHg 89%
    04:00 +3°C° 0 mm 2 mps 728 mmHg 89%
    05:00 +3°C° 0 mm 2 mps 728 mmHg 89%
    06:00 +3°C° 0 mm 2 mps 728 mmHg 90%
    07:00 +3°C° 0 mm 2 mps 728 mmHg 90%
    08:00 +4°C° 0 mm 2 mps 728 mmHg 88%
    09:00 +6°C° 0 mm 2 mps 728 mmHg 85%
    10:00 +7°C° 0 mm 2 mps 728 mmHg 83%
    11:00 +7°C° 0 mm 2 mps 728 mmHg 83%
    12:00 +8°C° 0 mm 2 mps 728 mmHg 82%
    13:00 +9°C° 0 mm 2 mps 728 mmHg 82%
    14:00 +8°C° 0 mm 2 mps 728 mmHg 85%
    15:00 +7°C° 0 mm 2 mps 728 mmHg 89%
    16:00 +6°C° 0 mm 2 mps 727 mmHg 93%
    17:00 +5°C° 0 mm 2 mps 728 mmHg 93%
    18:00 +5°C° 0 mm 2 mps 728 mmHg 94%
    19:00 +4°C° 0 mm 2 mps 728 mmHg 94%
    20:00 +4°C° 0 mm 2 mps 728 mmHg 94%
    21:00 +4°C° 0 mm 2 mps 728 mmHg 94%
    22:00 +4°C° 0 mm 2 mps 727 mmHg 93%
    23:00 +4°C° 0 mm 2 mps 727 mmHg 93%
    Show more